CW7229 Weather Reports


Display with metric or nautical units.
time (UTC)temp
F
wind
direction
speed
MPH
gust
MPH
rain 1hr
in
rain 24hr
in
rain mn
in
humidity
%
barometer
mb
20260831003111 60 145 0.0 0.0 0.00 0.03 0.00 48 1009.5
20260831000111 60 145 0.0 0.0 0.00 0.03 0.00 46 1009.5
20260830233111 61 145 0.0 0.0 0.00 0.03 0.00 44 1009.5
20260830230118 62 145 0.0 0.0 0.00 0.03 0.00 44 1010.5
20260830223117 62 148 0.0 0.0 0.00 0.04 0.00 42 1010.5
20260830213117 64 253 0.0 0.0 0.00 0.08 0.08 36 1010.4
20260830210117 66 253 0.0 0.0 0.00 0.08 0.08 35 1010.4
20260830200117 66 211 2.0 4.0 0.00 0.08 0.08 35 1010.4
20260830193116 67 186 0.0 0.0 0.00 0.08 0.08 34 1010.4
20260830190120 67 241 0.0 0.0 0.00 0.08 0.08 33 1010.4
20260830183119 69 230 0.0 5.0 0.00 0.08 0.08 32 1010.3
20260830180139 70 331 5.0 9.0 0.00 0.08 0.08 30 1010.3
20260830170138 70 225 4.0 8.0 0.00 0.08 0.08 29 1009.3
20260830163119 70 295 6.0 9.0 0.00 0.08 0.08 29 1009.3
20260830153118 71 10 5.0 8.0 0.00 0.08 0.08 31 1009.3
20260830150118 71 298 5.0 8.0 0.00 0.08 0.08 31 1009.3
20260830143117 71 220 6.0 10.0 0.00 0.08 0.08 32 1009.3
20260830140118 70 300 8.0 15.0 0.00 0.08 0.08 32 1009.3
20260830133117 70 258 5.0 11.0 0.00 0.08 0.08 32 1009.3
20260830130118 71 292 4.0 10.0 0.00 0.08 0.08 29 1009.3
20260830120117 71 312 8.0 13.0 0.00 0.08 0.08 28 1008.3
20260830110117 70 234 7.0 10.0 0.00 0.08 0.08 29 1008.3
20260830103116 71 289 8.0 14.0 0.00 0.08 0.08 28 1008.3
20260830100119 71 278 5.0 13.0 0.00 0.08 0.08 29 1008.3
20260830093119 71 248 8.0 15.0 0.00 0.08 0.08 29 1007.3
20260830090119 71 179 9.0 17.0 0.00 0.08 0.08 31 1007.3
20260830083119 70 332 8.0 12.0 0.00 0.08 0.08 33 1007.3
20260830080119 69 221 6.0 11.0 0.00 0.08 0.08 33 1007.3
20260830073119 69 204 8.0 12.0 0.00 0.08 0.08 35 1006.3
20260830070119 67 193 6.0 8.0 0.00 0.08 0.08 43 1007.3
20260830063119 66 226 5.0 6.0 0.00 0.08 0.08 48 1006.4
20260830060138 65 220 5.0 6.0 0.00 0.08 0.08 57 1006.4
20260830053118 63 173 6.0 8.0 0.00 0.08 0.08 65 1006.4
20260830050137 62 171 0.0 0.0 0.03 0.08 0.08 59 1006.4
20260830040118 67 257 7.0 11.0 0.00 0.05 0.04 39 1006.3
20260830033117 67 193 7.0 11.0 0.00 0.05 0.04 40 1005.3
20260830030117 66 226 7.0 8.0 0.00 0.05 0.04 40 1006.3
20260830023118 66 173 8.0 11.0 0.00 0.05 0.04 39 1006.3
20260830020118 66 216 8.0 8.0 0.00 0.05 0.04 41 1006.4
20260830013117 66 163 6.0 8.0 0.00 0.05 0.04 43 1006.3